EW0397 Weather Reports


Display with metric or nautical units.
time (UTC)temp
F
wind
direction
speed
MPH
gust
MPH
rain 1hr
in
rain 24hr
in
rain mn
in
humidity
%
barometer
mb
20260505041549 55 77 0.0 0.0 0.00 0.00 0.00 100 1008.2
20260505040047 55 77 0.0 0.0 0.00 0.00 0.00 100 1008.2
20260505034549 55 77 0.0 0.0 0.00 0.00 0.00 99 1008.4
20260505033048 55 77 0.0 0.0 0.00 0.00 0.00 99 1008.0
20260505031552 56 77 0.0 0.0 0.00 0.00 0.00 99 1007.9
20260505030043 56 77 0.0 0.0 0.00 0.00 0.00 99 1008.0
20260505024543 56 77 0.0 0.0 0.00 0.00 0.00 99 1008.1
20260505023041 56 77 0.0 0.0 0.00 0.00 0.00 99 1008.2
20260505021541 56 274 0.0 0.0 0.00 0.00 0.00 99 1008.3
20260505020039 56 278 0.0 0.0 0.00 0.00 0.00 99 1009.0
20260505014540 56 19 0.0 0.0 0.00 0.00 0.00 98 1009.5
20260505013056 56 177 0.0 0.0 0.00 0.00 0.00 98 1009.8
20260505011536 56 311 0.0 0.0 0.00 0.00 0.00 97 1010.0
20260505010034 58 267 0.0 0.0 0.00 0.00 0.00 95 1010.1
20260505004531 58 233 0.0 0.0 0.00 0.00 0.00 95 1009.8
20260505003033 58 242 0.0 0.0 0.00 0.00 0.00 95 1008.3
20260505001529 58 242 0.0 0.0 0.00 0.00 0.00 95 1008.4
20260505000031 58 242 0.0 0.0 0.00 0.00 0.00 94 1008.4
20260504234526 58 242 0.0 0.0 0.00 0.00 0.00 94 1008.4
20260504233025 58 242 0.0 0.0 0.00 0.00 0.00 94 1008.7
20260504231524 58 242 0.0 0.0 0.00 0.00 0.00 94 1008.6
20260504230023 58 242 0.0 0.0 0.00 0.00 0.00 94 1008.7
20260504224521 58 242 0.0 0.0 0.00 0.00 0.00 94 1008.8
20260504223020 58 242 0.0 0.0 0.00 0.00 0.00 93 1008.8
20260504221517 58 242 0.0 0.0 0.00 0.00 0.00 93 1009.3
20260504220018 59 242 0.0 0.0 0.00 0.00 0.00 92 1009.6
20260504214520 59 242 0.0 0.0 0.00 0.00 0.00 91 1009.7
20260504213013 60 242 0.0 0.0 0.00 0.00 0.00 91 1009.8
20260504211523 60 242 0.0 0.0 0.00 0.00 0.00 91 1009.9
20260504210010 60 242 0.0 0.0 0.00 0.00 0.00 91 1010.1
20260504204516 60 242 0.0 0.0 0.00 0.00 0.00 91 1010.3
20260504203011 60 242 0.0 0.0 0.00 0.00 0.00 91 1010.5
20260504201509 60 242 0.0 0.0 0.00 0.00 0.00 92 1010.7
20260504200008 61 242 0.0 0.0 0.00 0.00 0.00 91 1010.8
20260504194508 61 242 0.0 0.0 0.00 0.00 0.00 90 1010.8
20260504193007 61 242 0.0 0.0 0.00 0.00 0.00 90 1010.7
20260504191507 62 242 0.0 0.0 0.00 0.00 0.00 89 1010.6
20260504190006 62 242 0.0 0.0 0.00 0.00 0.00 88 1010.6
20260504184506 63 242 0.0 0.0 0.00 0.00 0.00 87 1010.4
20260504183006 63 242 0.0 0.0 0.00 0.00 0.00 87 1010.5
20260504181505 63 242 0.0 0.0 0.00 0.00 0.00 86 1010.5
20260504180004 63 242 0.0 0.0 0.00 0.00 0.00 86 1010.4
20260504174504 63 242 0.0 0.0 0.00 0.00 0.00 86 1010.4
20260504173003 64 329 0.0 0.0 0.00 0.00 0.00 85 1010.4
20260504171507 64 329 0.0 0.0 0.00 0.00 0.00 84 1010.2
20260504160106 68 329 0.0 0.0 0.00 0.00 0.00 76 1010.4
20260504140108 74 302 0.0 0.0 0.00 0.00 0.00 64 1010.6
20260504081600 67 246 0.0 0.0 0.00 0.00 0.00 82 1014.9
20260504050021 53 281 0.0 0.0 0.00 0.00 0.00 99 1015.3
20260504044522 52 281 0.0 0.0 0.00 0.00 0.00 98 1015.1